Stations météo

Publicité
Rouen, France (7037): Température de l'air & dewpoint: 28.05.2020 02:00:00 - 03.06.2020 02:00:00 (CEST)Rouen, France (7037): Température de l'air 5cm: 28.05.2020 02:00:00 - 03.06.2020 02:00:00 (CEST)Rouen, France (7037): Température de l'air -20cm & Température de l'air -100cm: 28.05.2020 02:00:00 - 03.06.2020 02:00:00 (CEST)Rouen, France (7037): Vitesse du vent & gusts: 28.05.2020 02:00:00 - 03.06.2020 02:00:00 (CEST)Rouen, France (7037): Direction du vent: 28.05.2020 02:00:00 - 03.06.2020 02:00:00 (CEST)Rouen, France (7037): reduced air pressure: 28.05.2020 02:00:00 - 03.06.2020 02:00:00 (CEST)Rouen, France (7037): visibility: 28.05.2020 02:00:00 - 03.06.2020 02:00:00 (CEST)Rouen, France (7037): Ensoleillement: 28.05.2020 02:00:00 - 03.06.2020 02:00:00 (CEST)Rouen, France (7037): Quantités de précipitations: 28.05.2020 02:00:00 - 03.06.2020 02:00:00 (CEST)
Date & Time tt [°C] td [°C] tt 5cm [°C] tt -20cm [°C] tt -100cm [°C] ff [km/h] ff [knt] fx [km/h] fx [knt] dd ppp [hPa] vv [km] sd [min] rr [mm]
03.06.2020 02:00:00 16,4 9,1 13,9 19,0 14,7 9 5 16 9 NNW 1012,5 59 0 0,0
03.06.2020 01:00:00 17,2 8,3 13,6 19,2 14,7 10 6 14 8 NNW 1012,8 60 0 0,0
03.06.2020 00:00:00 18,5 7,9 16,9 19,3 14,7 10 6 16 9 N 1013,3 60 0 0,0
02.06.2020 23:00:00 19,3 8,3 18,2 19,4 14,7 12 7 22 12 N 1013,6 60 0 0,0
02.06.2020 22:00:00 20,5 8,5 19,1 19,4 14,7 13 7 22 12 N 1013,7 60 0 0,0
02.06.2020 21:00:00 22,5 8,6 23,3 19,4 14,6 13 7 31 17 N 1013,5 16 0 0,0
02.06.2020 20:00:00 24,3 10,2 28,1 19,3 14,7 18 10 31 17 N 1013,6 41 55 0,0
02.06.2020 19:00:00 25,5 11,6 26,7 19,2 14,6 21 11 35 19 N 1013,8 11 44 0,0
02.06.2020 18:00:00 25,3 13,2 26,1 19,0 14,6 19 10 30 16 N 1014,1 20 19 0,0
02.06.2020 17:00:00 28,2 12,5 30,4 18,7 14,6 9 5 20 11 NNW 1014,3 19 29 0,0
02.06.2020 16:00:00 27,2 9,5 31,9 18,4 14,6 6 3 19 10 SE 1015,0 19 32 0,0
02.06.2020 15:00:00 27,7 10,0 30,2 18,1 14,6 9 5 16 9 NNE 1015,7 20 45 0,0
02.06.2020 14:00:00 28,0 11,9 32,5 17,8 14,6 7 4 18 10 SSW 1016,1 19 52 0,0
02.06.2020 13:00:00 - - 32,0 17,5 14,6 5 3 16 8 SW - 10 60 0,0
02.06.2020 12:00:00 - - 31,7 17,4 14,7 4 2 10 5 W - 16 60 0,0
02.06.2020 11:00:00 24,8 11,7 28,8 17,4 14,6 4 2 13 7 E 1017,7 4,1 60 0,0
02.06.2020 10:00:00 21,7 11,1 25,0 17,4 14,7 7 4 14 7 NE 1018,0 20 60 0,0
02.06.2020 09:00:00 19,5 10,8 21,0 17,5 14,7 9 5 14 7 NE 1018,1 27 53 0,0
02.06.2020 08:00:00 17,7 9,8 13,2 17,7 14,6 6 3 16 9 NE 1018,2 39 0 0,0
02.06.2020 07:00:00 14,8 10,0 8,2 17,8 14,6 4 2 14 8 NE 1018,3 40 0 0,0
02.06.2020 06:00:00 13,0 9,3 8,1 17,9 14,6 11 6 15 8 NNE 1018,2 50 0 0,0
02.06.2020 05:00:00 14,1 9,7 12,2 18,1 14,6 12 7 16 9 NE 1018,3 46 0 0,0
02.06.2020 04:00:00 14,8 10,4 13,2 18,2 14,6 12 6 18 10 NNE 1018,6 46 0 0,0
02.06.2020 03:00:00 15,3 11,1 13,8 18,3 14,6 15 8 22 12 NNE 1018,6 46 0 0,0
02.06.2020 02:00:00 16,0 11,8 14,5 18,4 14,6 14 8 21 12 NNE 1018,8 43 0 0,0
02.06.2020 01:00:00 16,6 11,9 15,0 18,6 14,6 13 7 22 12 NNE 1019,2 41 0 0,0
02.06.2020 00:00:00 17,2 12,1 15,6 18,7 14,6 14 8 24 13 NNE 1019,1 40 0 0,0
01.06.2020 23:00:00 17,8 11,8 16,0 18,7 14,5 10 5 21 11 N 1018,8 52 0 0,0
01.06.2020 22:00:00 19,8 11,3 18,2 18,8 14,6 13 7 22 12 N 1018,2 60 0 0,0
01.06.2020 21:00:00 24,1 10,0 26,3 18,7 14,5 7 4 16 9 NNE 1017,6 52 0 0,0
01.06.2020 20:00:00 24,1 9,7 27,6 18,6 14,5 13 7 26 14 NE 1017,6 24 44 0,0
01.06.2020 19:00:00 25,5 8,9 32,6 18,5 14,5 15 8 31 17 NE 1017,4 17 60 0,0
01.06.2020 18:00:00 25,6 9,0 33,4 18,2 14,5 16 8 33 18 ENE 1017,6 16 60 0,0
01.06.2020 17:00:00 25,6 7,7 34,0 17,9 14,5 17 9 32 17 NE 1018,0 12 60 0,0
01.06.2020 16:00:00 25,3 7,4 33,6 17,6 14,5 19 11 38 21 ENE 1018,4 15 60 0,0
01.06.2020 15:00:00 25,1 7,7 32,8 17,3 14,5 18 10 37 20 ENE 1018,7 18 60 0,0
01.06.2020 14:00:00 24,5 7,6 31,7 17,0 14,5 19 10 36 19 ENE 1018,8 22 60 0,0
01.06.2020 13:00:00 24,2 6,0 29,0 17,0 14,5 21 11 39 21 ENE 1018,8 28 60 0,0
01.06.2020 12:00:00 22,9 7,0 27,5 16,9 14,5 20 11 33 18 ENE 1019,2 32 60 0,0
01.06.2020 11:00:00 21,5 7,7 25,7 16,8 14,5 16 9 25 14 ENE 1019,4 31 60 0,0
01.06.2020 10:00:00 20,1 8,1 21,7 16,9 14,5 16 9 24 13 ENE 1019,7 30 60 0,0
01.06.2020 09:00:00 17,5 7,8 17,7 17,0 14,5 16 9 23 12 ENE 1019,5 19 53 0,0
01.06.2020 08:00:00 14,9 7,4 12,5 17,2 14,5 16 8 19 11 NE 1019,5 32 0 0,0
01.06.2020 07:00:00 12,7 6,3 7,8 17,3 14,5 13 7 17 9 NE 1019,6 19 0 0,0
01.06.2020 06:00:00 11,0 5,5 9,0 17,5 14,5 13 7 18 10 NE 1019,6 60 0 0,0
01.06.2020 05:00:00 10,7 5,4 8,5 17,6 14,5 13 7 18 10 NE 1019,7 60 0 0,0
01.06.2020 04:00:00 11,4 5,5 9,2 17,8 14,5 14 8 20 11 NE 1019,7 60 0 0,0
01.06.2020 03:00:00 12,0 5,4 9,9 17,9 14,5 14 8 21 11 NE 1019,8 60 0 0,0
01.06.2020 02:00:00 13,0 5,6 10,9 18,0 14,4 16 9 21 11 NE 1019,6 60 0 0,0
01.06.2020 01:00:00 13,4 6,0 10,8 18,2 14,5 14 8 19 10 NE 1019,8 60 0 0,0
01.06.2020 00:00:00 15,4 6,7 13,2 18,3 14,4 12 7 15 8 NE 1019,6 60 0 0,0
31.05.2020 23:00:00 16,1 6,5 13,1 18,4 14,4 11 6 13 7 NE 1019,5 60 0 0,0
31.05.2020 22:00:00 16,5 6,6 14,0 18,5 14,4 11 6 17 9 NE 1019,0 60 4 0,0
31.05.2020 21:00:00 19,7 5,7 21,7 18,5 14,4 11 6 28 15 ENE 1018,6 27 0 0,0
31.05.2020 20:00:00 21,7 5,6 24,0 18,4 14,4 15 8 30 16 NE 1018,3 25 50 0,0
31.05.2020 19:00:00 22,4 4,9 25,0 18,2 14,4 18 10 34 19 NE 1018,0 17 55 0,0
31.05.2020 18:00:00 22,9 4,9 25,6 18,1 14,4 21 11 36 20 ENE 1018,3 15 47 0,0
31.05.2020 17:00:00 23,5 5,4 28,1 17,8 14,4 22 12 37 20 ENE 1018,6 19 55 0,0
31.05.2020 16:00:00 23,7 5,6 31,4 17,5 14,4 21 12 40 22 ENE 1018,7 14 60 0,0
31.05.2020 15:00:00 23,6 5,5 30,7 17,3 14,4 22 12 39 21 ENE 1019,0 18 60 0,0
31.05.2020 14:00:00 23,0 4,5 29,5 17,1 14,4 21 11 40 22 E 1019,2 22 60 0,0
31.05.2020 13:00:00 22,4 4,0 27,5 16,9 14,4 24 13 40 21 E 1019,7 20 60 0,0
31.05.2020 12:00:00 22,3 4,3 26,4 16,8 14,3 28 15 39 21 E 1020,0 28 60 0,0
31.05.2020 11:00:00 21,3 6,4 25,0 16,8 14,3 19 11 31 17 E 1019,9 24 60 0,0
31.05.2020 10:00:00 20,2 6,9 20,3 16,9 14,4 17 9 26 14 E 1020,0 23 60 0,0
31.05.2020 09:00:00 18,1 6,6 17,4 17,0 14,4 15 8 24 13 E 1020,2 36 52 0,0
31.05.2020 08:00:00 15,7 7,7 12,1 17,1 14,3 13 7 20 11 E 1020,3 52 0 0,0
31.05.2020 07:00:00 13,2 6,8 4,7 17,3 14,3 9 5 16 9 ENE 1019,8 59 0 0,0
31.05.2020 06:00:00 10,0 6,2 5,2 17,4 14,3 10 5 14 8 ENE 1019,6 20 0 0,0
31.05.2020 05:00:00 10,1 6,1 7,1 17,6 14,3 10 6 13 7 ENE 1019,4 60 0 0,0
31.05.2020 04:00:00 10,9 6,2 8,7 17,8 14,3 12 7 16 9 NE 1019,5 60 0 0,0
31.05.2020 03:00:00 12,5 6,3 7,6 17,9 14,3 12 6 19 11 NE 1019,5 60 0 0,0
31.05.2020 02:00:00 12,7 6,5 7,6 18,1 14,3 11 6 13 7 NE 1019,4 60 0 0,0
31.05.2020 01:00:00 15,6 6,3 8,7 18,2 14,3 11 6 13 7 NNE 1019,5 60 0 0,0
31.05.2020 00:00:00 15,0 6,5 11,2 18,3 14,3 10 6 12 7 NE 1019,5 60 0 0,0
30.05.2020 23:00:00 15,8 6,8 12,7 18,4 14,3 9 5 11 6 ENE 1019,2 60 0 0,0
30.05.2020 22:00:00 17,6 7,0 14,2 18,5 14,3 9 5 16 9 ENE 1018,7 60 0 0,0
30.05.2020 21:00:00 20,7 7,0 23,0 18,5 14,3 10 5 24 13 ENE 1018,2 58 0 0,0
30.05.2020 20:00:00 23,1 6,4 28,5 18,4 14,3 16 9 32 17 ENE 1018,0 23 54 0,0
30.05.2020 19:00:00 24,0 6,3 29,7 18,3 14,3 19 10 32 18 E 1018,1 17 60 0,0
30.05.2020 18:00:00 24,8 5,5 32,2 18,0 14,2 19 11 37 20 ENE 1018,4 19 60 0,0
30.05.2020 17:00:00 25,0 5,7 33,5 17,7 14,2 16 9 38 20 ENE 1018,6 19 60 0,0
30.05.2020 16:00:00 24,9 5,6 33,5 17,4 14,2 17 9 32 17 E 1019,1 23 60 0,0
30.05.2020 15:00:00 24,7 6,0 32,2 17,2 14,3 16 9 32 18 E 1019,4 26 60 0,0
30.05.2020 14:00:00 24,9 6,1 31,7 16,9 14,2 19 11 35 19 ENE 1019,9 20 60 0,0
30.05.2020 13:00:00 23,9 6,6 27,7 16,7 14,2 17 9 31 17 ENE 1020,4 32 57 0,0
30.05.2020 12:00:00 23,3 6,5 28,5 16,6 14,2 11 6 26 14 E 1020,8 30 60 0,0
30.05.2020 11:00:00 22,5 8,2 26,4 16,6 14,2 10 6 25 14 ESE 1021,2 22 60 0,0
30.05.2020 10:00:00 20,7 8,3 22,4 16,6 14,2 14 8 20 11 ESE 1021,3 18 60 0,0
30.05.2020 09:00:00 18,7 8,6 18,1 16,7 14,2 11 6 16 9 E 1021,3 20 52 0,0
30.05.2020 08:00:00 14,8 7,8 11,2 16,9 14,2 10 5 15 8 ENE 1021,4 39 0 0,0
30.05.2020 07:00:00 11,7 7,2 7,4 17,0 14,2 9 5 17 9 ENE 1021,7 49 0 0,0
30.05.2020 06:00:00 9,6 6,7 7,6 17,2 14,2 15 8 18 10 ENE 1021,7 31 0 0,0
30.05.2020 05:00:00 10,4 6,7 7,9 17,3 14,2 15 8 18 10 ENE 1021,8 36 0 0,0
30.05.2020 04:00:00 10,5 6,6 8,7 17,4 14,2 15 8 18 10 NE 1021,9 40 0 0,0
30.05.2020 03:00:00 12,6 6,8 10,6 17,5 14,2 13 7 18 10 NE 1022,2 42 0 0,0
30.05.2020 02:00:00 13,3 7,1 12,2 17,7 14,2 15 8 21 11 NE 1022,4 46 0 0,0
30.05.2020 01:00:00 14,4 7,0 12,8 17,9 14,2 14 7 19 11 NE 1022,5 52 0 0,0
30.05.2020 00:00:00 16,0 5,0 13,2 18,0 14,2 13 7 17 9 NNE 1022,5 60 0 0,0
29.05.2020 23:00:00 16,5 4,8 11,2 18,1 14,2 9 5 14 8 NE 1022,3 60 0 0,0
29.05.2020 22:00:00 17,1 5,1 12,8 18,1 14,2 10 5 16 9 NE 1021,9 60 0 0,0
29.05.2020 21:00:00 19,8 5,4 22,2 18,1 14,1 11 6 23 12 ENE 1021,6 53 0 0,0
29.05.2020 20:00:00 22,3 3,9 28,4 18,1 14,1 17 9 29 16 NE 1021,6 38 54 0,0
29.05.2020 19:00:00 23,4 4,3 29,7 17,9 14,1 18 10 34 18 ENE 1021,6 21 60 0,0
29.05.2020 18:00:00 23,8 4,7 31,0 17,7 14,1 19 11 33 18 ENE 1022,1 19 60 0,0
29.05.2020 17:00:00 24,2 2,9 32,5 17,4 14,1 21 11 35 19 E 1022,5 20 60 0,0
29.05.2020 16:00:00 24,1 2,8 32,5 17,1 14,1 18 10 34 18 ENE 1023,0 17 60 0,0
29.05.2020 15:00:00 23,9 3,2 31,4 16,9 14,1 17 9 28 15 NE 1023,7 25 60 0,0
29.05.2020 14:00:00 23,2 4,7 29,5 16,6 14,1 19 10 34 18 ENE 1024,5 20 60 0,0
29.05.2020 13:00:00 22,2 5,6 28,4 16,5 14,1 21 11 33 18 E 1025,2 20 60 0,0
29.05.2020 12:00:00 21,8 5,2 26,5 16,4 14,1 15 8 29 16 E 1025,7 20 60 0,0
29.05.2020 11:00:00 19,8 6,2 23,2 16,4 14,1 16 8 24 13 E 1026,2 32 60 0,0
29.05.2020 10:00:00 18,3 5,5 19,7 16,4 14,1 15 8 26 14 E 1026,3 30 60 0,0
29.05.2020 09:00:00 15,9 5,8 16,0 16,5 14,1 18 10 25 13 ENE 1026,5 28 51 0,0
29.05.2020 08:00:00 13,4 6,0 11,5 16,7 14,1 17 9 24 13 ENE 1026,6 32 0 0,0
29.05.2020 07:00:00 11,5 5,6 8,7 16,8 14,1 15 8 23 12 ENE 1026,8 38 0 0,0
29.05.2020 06:00:00 10,1 5,3 8,3 17,0 14,1 16 9 22 12 NE 1026,8 55 0 0,0
29.05.2020 05:00:00 11,0 4,7 8,8 17,1 14,1 14 8 25 14 ENE 1026,9 60 0 0,0
29.05.2020 04:00:00 11,3 5,4 9,6 17,3 14,1 16 9 26 14 ENE 1027,1 60 0 0,0
29.05.2020 03:00:00 11,8 5,4 10,2 17,4 14,1 19 10 27 14 ENE 1027,3 60 0 0,0
29.05.2020 02:00:00 12,2 5,4 10,6 17,5 14,1 16 9 21 11 NE 1027,5 60 0 0,0
29.05.2020 01:00:00 13,5 5,4 12,1 17,7 14,1 14 8 19 10 NE 1027,7 60 0 0,0
29.05.2020 00:00:00 14,8 5,3 13,2 17,8 14,0 14 7 18 10 NE 1027,8 60 0 0,0
28.05.2020 23:00:00 16,1 5,7 14,1 17,9 14,0 12 6 16 9 NE 1027,9 60 0 0,0
28.05.2020 22:00:00 16,7 5,0 13,3 18,0 14,0 11 6 21 12 NE 1027,6 60 0 0,0
28.05.2020 21:00:00 - - 20,1 18,0 14,0 14 7 34 19 ENE - 50 0 0,0
28.05.2020 20:00:00 21,1 4,2 26,4 17,9 14,0 23 12 34 18 NE 1027,4 15 53 0,0
28.05.2020 19:00:00 22,2 4,3 28,8 17,8 14,0 24 13 37 20 ENE 1027,6 13 60 0,0
28.05.2020 18:00:00 22,7 3,7 29,8 17,6 14,0 23 13 33 18 ENE 1027,8 14 60 0,0
28.05.2020 17:00:00 22,8 3,8 31,0 17,4 14,0 24 13 37 20 ENE 1028,3 14 60 0,0
28.05.2020 16:00:00 22,9 3,4 30,8 17,1 14,0 22 12 35 19 ENE 1028,8 14 60 0,0
28.05.2020 15:00:00 22,3 5,2 29,0 16,9 14,0 23 13 36 19 E 1029,3 15 60 0,0
28.05.2020 14:00:00 21,6 8,5 28,8 16,6 13,9 20 11 35 19 ENE 1029,9 16 60 0,0
28.05.2020 13:00:00 20,4 9,3 26,8 16,5 13,9 21 11 35 19 NE 1030,5 17 60 0,0
28.05.2020 12:00:00 19,8 9,7 25,0 16,4 13,9 18 10 34 18 NE 1031,2 14 60 0,0
28.05.2020 11:00:00 18,1 10,9 21,2 16,5 13,9 18 10 28 15 NNE 1031,6 13 60 0,0
28.05.2020 10:00:00 15,7 11,1 16,0 16,5 13,9 16 9 26 14 NE 1032,2 14 50 0,0
28.05.2020 09:00:00 13,1 10,3 14,1 16,6 13,9 16 8 25 14 NE 1032,8 8 26 0,0
28.05.2020 08:00:00 12,1 9,1 11,0 16,8 13,9 16 8 24 13 NE 1032,9 10 0 0,0
28.05.2020 07:00:00 10,8 7,1 8,4 17,0 13,9 13 7 21 11 NE 1033,0 23 0 0,0
28.05.2020 06:00:00 10,4 6,5 6,8 17,1 13,9 11 6 16 8 NNE 1033,0 55 0 0,0
28.05.2020 05:00:00 11,6 6,9 9,5 17,3 13,9 11 6 20 11 NNE 1033,0 60 0 0,0
28.05.2020 04:00:00 12,0 8,1 9,5 17,4 13,9 8 4 14 8 NNE 1032,9 55 0 0,0
28.05.2020 03:00:00 13,0 8,3 11,2 17,5 13,9 10 5 17 9 NE 1033,2 59 0 0,0
28.05.2020 02:00:00 13,9 8,5 12,4 17,6 13,9 11 6 24 13 NE 1033,4 60 0 0,0

tt = Température de l'air
td = dewpoint
tt 5cm = Température de l'air 5cm
tt -20cm = Température de l'air -20cm
tt -100cm = Température de l'air -100cm
ff = Vitesse du vent
fx = gusts
dd = Direction du vent
ppp = reduced air pressure
vv = visibility
sd = Ensoleillement
rr = Quantités de précipitations

stations d'obs. à proximité